AFR53PG LFPG-EGNT

Flight info

Callsign AFR53PG
Flight time 1h 11m
Altitude 38000
Route ATREX DCT VESAN DCT RATUK DCT SOVAT L613 MAMUL UY250 RIMTO
Aircraft E190/M-SDE3GILORVW/S

Departure

Time 2026-05-08 08:26
Airport Charles de Gaulle International Airport (LFPG)

Arrival

Time 2026-05-08 09:37
Airport Newcastle International Airport (EGNT)
Time Latitude Longitude Altitude Speed Heading
2026-05-08 07:36 49.00489 2.60277 329 ft 0 kts 86°
2026-05-08 08:06 49.00489 2.60271 333 ft 3 kts 84°
2026-05-08 08:07 49.00481 2.60240 330 ft 4 kts 38°
2026-05-08 08:07 49.00470 2.60218 330 ft 4 kts 94°
2026-05-08 08:07 49.00478 2.60200 329 ft 4 kts 148°
2026-05-08 08:07 49.00476 2.60200 329 ft 4 kts 158°
2026-05-08 08:08 49.00453 2.60201 331 ft 4 kts 180°
2026-05-08 08:08 49.00436 2.60203 331 ft 0 kts 174°
2026-05-08 08:12 49.00430 2.60203 331 ft 3 kts 174°
2026-05-08 08:12 49.00391 2.60209 332 ft 7 kts 174°
2026-05-08 08:12 49.00348 2.60173 328 ft 9 kts 250°
2026-05-08 08:12 49.00340 2.60067 333 ft 11 kts 265°
2026-05-08 08:13 49.00334 2.59957 331 ft 15 kts 265°
2026-05-08 08:13 49.00325 2.59791 333 ft 17 kts 264°
2026-05-08 08:13 49.00329 2.59628 332 ft 13 kts 317°
2026-05-08 08:13 49.00423 2.59605 333 ft 15 kts 355°
2026-05-08 08:14 49.00527 2.59593 331 ft 16 kts 354°
2026-05-08 08:14 49.00646 2.59577 333 ft 18 kts 355°
2026-05-08 08:14 49.00776 2.59561 333 ft 19 kts 354°
2026-05-08 08:14 49.00914 2.59545 333 ft 20 kts 355°
2026-05-08 08:15 49.01002 2.59500 332 ft 13 kts 301°
2026-05-08 08:15 49.01000 2.59350 333 ft 15 kts 265°
2026-05-08 08:15 49.00992 2.59174 333 ft 18 kts 266°
2026-05-08 08:15 49.00964 2.58983 328 ft 19 kts 253°
2026-05-08 08:16 49.00948 2.58781 331 ft 21 kts 264°
2026-05-08 08:16 49.00935 2.58550 333 ft 23 kts 265°
2026-05-08 08:16 49.00922 2.58299 330 ft 24 kts 265°
2026-05-08 08:16 49.00966 2.58101 330 ft 21 kts 340°
2026-05-08 08:17 49.01092 2.58083 337 ft 20 kts 355°
2026-05-08 08:17 49.01224 2.58065 350 ft 18 kts 355°
2026-05-08 08:17 49.01346 2.58051 346 ft 17 kts 355°
2026-05-08 08:17 49.01460 2.58037 351 ft 16 kts 356°
2026-05-08 08:18 49.01572 2.58022 355 ft 18 kts 355°
2026-05-08 08:18 49.01709 2.58005 360 ft 21 kts 354°
2026-05-08 08:18 49.01856 2.57986 366 ft 22 kts 350°
2026-05-08 08:18 49.01977 2.57856 364 ft 22 kts 301°
2026-05-08 08:19 49.01999 2.57660 363 ft 22 kts 266°
2026-05-08 08:19 49.01987 2.57423 360 ft 23 kts 265°
2026-05-08 08:19 49.01973 2.57167 363 ft 25 kts 264°
2026-05-08 08:19 49.01958 2.56896 365 ft 26 kts 265°
2026-05-08 08:20 49.01945 2.56643 363 ft 27 kts 264°
2026-05-08 08:20 49.01929 2.56347 366 ft 29 kts 265°
2026-05-08 08:20 49.01913 2.56038 361 ft 30 kts 265°
2026-05-08 08:20 49.01895 2.55716 361 ft 31 kts 265°
2026-05-08 08:21 49.01884 2.55496 361 ft 32 kts 266°
2026-05-08 08:21 49.01869 2.55229 361 ft 18 kts 264°
2026-05-08 08:21 49.01936 2.55079 366 ft 18 kts 317°
2026-05-08 08:21 49.01941 2.54891 363 ft 19 kts 265°
2026-05-08 08:22 49.01930 2.54682 365 ft 21 kts 265°
2026-05-08 08:22 49.01917 2.54450 364 ft 23 kts 265°
2026-05-08 08:22 49.01905 2.54200 361 ft 24 kts 265°
2026-05-08 08:22 49.01890 2.53933 363 ft 26 kts 266°
2026-05-08 08:23 49.01876 2.53649 361 ft 27 kts 266°
2026-05-08 08:23 49.01860 2.53360 365 ft 28 kts 266°
2026-05-08 08:23 49.01849 2.53167 361 ft 16 kts 265°
2026-05-08 08:23 49.01894 2.53039 361 ft 16 kts 353°
2026-05-08 08:24 49.02010 2.53028 363 ft 17 kts 357°
2026-05-08 08:24 49.02085 2.53017 369 ft 14 kts 353°
2026-05-08 08:24 49.02153 2.53065 372 ft 12 kts 57°
2026-05-08 08:24 49.02163 2.53143 372 ft 0 kts 85°
2026-05-08 08:25 49.02164 2.53159 372 ft 9 kts 85°
2026-05-08 08:25 49.02190 2.53644 371 ft 84 kts 84°
2026-05-08 08:25 49.02259 2.54897 377 ft 150 kts 85°
2026-05-08 08:25 49.02332 2.56538 864 ft 173 kts 85°
2026-05-08 08:26 49.02415 2.58481 1652 ft 192 kts 86°
2026-05-08 08:26 49.02529 2.60472 2438 ft 198 kts 83°
2026-05-08 08:26 49.02699 2.62601 3162 ft 209 kts 83°
2026-05-08 08:26 49.02854 2.64860 3949 ft 219 kts 85°
2026-05-08 08:27 49.02993 2.67294 4412 ft 249 kts 85°
2026-05-08 08:27 49.03137 2.69972 4997 ft 269 kts 85°
2026-05-08 08:27 49.03385 2.72897 5947 ft 273 kts 73°
2026-05-08 08:27 49.04407 2.75294 6836 ft 274 kts 39°
2026-05-08 08:28 49.06107 2.76577 7699 ft 275 kts 12°
2026-05-08 08:28 49.08038 2.76642 8546 ft 277 kts 347°
2026-05-08 08:28 49.09880 2.75854 9371 ft 280 kts 340°
2026-05-08 08:28 49.11741 2.74891 10194 ft 285 kts 340°
2026-05-08 08:29 49.13705 2.73922 10581 ft 306 kts 341°
2026-05-08 08:29 49.15790 2.72905 10994 ft 325 kts 341°
2026-05-08 08:29 49.18018 2.71768 11480 ft 340 kts 340°
2026-05-08 08:29 49.20277 2.70578 12211 ft 347 kts 340°
2026-05-08 08:30 49.22553 2.69402 13033 ft 353 kts 340°
2026-05-08 08:30 49.24886 2.68217 13910 ft 358 kts 340°
2026-05-08 08:30 49.29679 2.65775 15610 ft 367 kts 340°
2026-05-08 08:31 49.32087 2.64561 16442 ft 371 kts 340°
2026-05-08 08:31 49.34585 2.63275 17277 ft 377 kts 339°
2026-05-08 08:31 49.37041 2.61971 18102 ft 381 kts 339°
2026-05-08 08:31 49.39555 2.60598 18851 ft 385 kts 338°
2026-05-08 08:32 49.42089 2.59193 19569 ft 389 kts 338°
2026-05-08 08:32 49.44516 2.57836 20241 ft 392 kts 338°
2026-05-08 08:32 49.46646 2.56626 20785 ft 395 kts 338°
2026-05-08 08:32 49.49225 2.55137 21433 ft 398 kts 337°
2026-05-08 08:33 49.51823 2.53609 22054 ft 401 kts 337°
2026-05-08 08:33 49.54435 2.52041 22678 ft 405 kts 336°
2026-05-08 08:33 49.57066 2.50442 23333 ft 408 kts 336°
2026-05-08 08:33 49.59714 2.48812 23936 ft 412 kts 336°
2026-05-08 08:34 49.62379 2.47149 24514 ft 415 kts 336°
2026-05-08 08:34 49.65105 2.45429 25102 ft 418 kts 335°
2026-05-08 08:34 49.67708 2.43757 25641 ft 421 kts 335°
2026-05-08 08:34 49.70396 2.42016 26164 ft 424 kts 335°
2026-05-08 08:35 49.73126 2.40224 26665 ft 427 kts 335°
2026-05-08 08:35 49.75864 2.38408 27141 ft 430 kts 334°
2026-05-08 08:35 49.78254 2.36809 27529 ft 433 kts 334°
2026-05-08 08:35 49.80944 2.35111 28403 ft 424 kts 338°
2026-05-08 08:36 49.83699 2.33574 29193 ft 420 kts 338°
2026-05-08 08:36 49.86447 2.32034 29759 ft 421 kts 338°
2026-05-08 08:36 49.89003 2.30587 30234 ft 422 kts 338°
2026-05-08 08:36 49.91815 2.28987 30538 ft 426 kts 338°
2026-05-08 08:37 49.94597 2.27398 30901 ft 428 kts 338°
2026-05-08 08:37 49.97409 2.25788 31169 ft 431 kts 338°
2026-05-08 08:37 50.00163 2.24211 31554 ft 432 kts 338°
2026-05-08 08:37 50.03000 2.22580 31782 ft 436 kts 337°
2026-05-08 08:38 50.05845 2.20945 32146 ft 436 kts 337°
2026-05-08 08:38 50.08688 2.19307 32588 ft 435 kts 337°
2026-05-08 08:38 50.11519 2.17673 33027 ft 433 kts 337°
2026-05-08 08:38 50.14378 2.16022 33446 ft 432 kts 337°
2026-05-08 08:39 50.17157 2.14413 33832 ft 432 kts 337°
2026-05-08 08:39 50.19970 2.12783 34212 ft 431 kts 337°
2026-05-08 08:39 50.22767 2.11160 34525 ft 431 kts 337°
2026-05-08 08:39 50.25576 2.09528 34835 ft 430 kts 337°
2026-05-08 08:40 50.28382 2.07897 35132 ft 431 kts 337°
2026-05-08 08:40 50.31189 2.06264 35441 ft 430 kts 337°
2026-05-08 08:40 50.33124 2.05138 35655 ft 430 kts 337°
2026-05-08 08:40 50.35915 2.03460 35938 ft 429 kts 333°
2026-05-08 08:41 50.38443 2.01052 36186 ft 424 kts 318°
2026-05-08 08:41 50.40671 1.98053 36507 ft 422 kts 316°
2026-05-08 08:41 50.42721 1.95214 36777 ft 422 kts 316°
2026-05-08 08:41 50.44955 1.92131 37044 ft 422 kts 316°
2026-05-08 08:42 50.47133 1.89124 37324 ft 422 kts 316°
2026-05-08 08:42 50.49368 1.86038 37598 ft 422 kts 316°
2026-05-08 08:42 50.51555 1.83016 37878 ft 421 kts 316°
2026-05-08 08:42 50.53750 1.79985 38206 ft 418 kts 316°
2026-05-08 08:43 50.58136 1.73923 38178 ft 419 kts 316°
2026-05-08 08:43 50.62503 1.67872 38159 ft 418 kts 316°
2026-05-08 08:44 50.66864 1.61818 38164 ft 418 kts 316°
2026-05-08 08:44 50.71253 1.55798 38100 ft 417 kts 316°
2026-05-08 08:45 50.75626 1.49778 38100 ft 417 kts 316°
2026-05-08 08:45 50.79721 1.44116 38100 ft 417 kts 316°
2026-05-08 08:46 50.84048 1.38084 38103 ft 417 kts 316°
2026-05-08 08:46 50.88330 1.32104 38101 ft 417 kts 316°
2026-05-08 08:47 50.92677 1.26016 38105 ft 417 kts 316°
2026-05-08 08:47 50.96957 1.20010 38100 ft 417 kts 316°
2026-05-08 08:48 51.01297 1.13901 38101 ft 417 kts 316°
2026-05-08 08:48 51.05132 1.08492 38101 ft 417 kts 316°
2026-05-08 08:49 51.09773 1.02922 38119 ft 420 kts 323°
2026-05-08 08:49 51.14583 0.97669 38107 ft 419 kts 323°
2026-05-08 08:50 51.19377 0.92390 38103 ft 419 kts 323°
2026-05-08 08:50 51.24159 0.87101 38054 ft 419 kts 323°
2026-05-08 08:51 51.28938 0.81797 38047 ft 418 kts 323°
2026-05-08 08:51 51.33718 0.76480 38103 ft 419 kts 323°
2026-05-08 08:52 51.38495 0.71150 38103 ft 418 kts 323°
2026-05-08 08:52 51.43266 0.65813 38103 ft 418 kts 323°
2026-05-08 08:53 51.48032 0.60468 38104 ft 418 kts 323°
2026-05-08 08:53 51.52520 0.55423 38103 ft 418 kts 323°
2026-05-08 08:54 51.57280 0.50058 38101 ft 418 kts 323°
2026-05-08 08:54 51.61528 0.45260 38104 ft 418 kts 323°
2026-05-08 08:55 51.66282 0.39875 38101 ft 418 kts 323°
2026-05-08 08:55 51.70385 0.35214 38097 ft 418 kts 323°
2026-05-08 08:56 51.75132 0.29812 38099 ft 418 kts 323°
2026-05-08 08:56 51.79577 0.24738 38105 ft 417 kts 323°
2026-05-08 08:57 51.84317 0.19315 38102 ft 417 kts 323°
2026-05-08 08:57 51.89049 0.13887 38103 ft 417 kts 323°
2026-05-08 08:58 51.93782 0.08443 38102 ft 417 kts 323°
2026-05-08 08:58 51.98115 0.03447 38101 ft 417 kts 322°
2026-05-08 08:59 52.02867 -0.01956 38099 ft 418 kts 327°
2026-05-08 08:59 52.07090 -0.05793 38098 ft 419 kts 329°
2026-05-08 09:00 52.11953 -0.10051 38089 ft 418 kts 329°
2026-05-08 09:00 52.17069 -0.14572 38091 ft 418 kts 329°
2026-05-08 09:01 52.22179 -0.19110 38092 ft 418 kts 329°
2026-05-08 09:01 52.27285 -0.23657 38096 ft 418 kts 329°
2026-05-08 09:02 52.32353 -0.28181 38093 ft 418 kts 329°
2026-05-08 09:02 52.37464 -0.32717 38100 ft 418 kts 329°
2026-05-08 09:03 52.42569 -0.37261 38095 ft 418 kts 329°
2026-05-08 09:03 52.47670 -0.41815 38104 ft 417 kts 329°
2026-05-08 09:04 52.52768 -0.46378 38111 ft 417 kts 329°
2026-05-08 09:04 52.57865 -0.50953 38105 ft 417 kts 329°
2026-05-08 09:05 52.62225 -0.54876 38104 ft 417 kts 329°
2026-05-08 09:05 52.67315 -0.59469 38107 ft 417 kts 329°
2026-05-08 09:06 52.72397 -0.64065 38107 ft 417 kts 329°
2026-05-08 09:06 52.77447 -0.68646 38107 ft 416 kts 329°
2026-05-08 09:07 52.82552 -0.73288 38095 ft 416 kts 329°
2026-05-08 09:07 52.87592 -0.77883 38093 ft 416 kts 329°
2026-05-08 09:08 52.92510 -0.82382 38108 ft 416 kts 329°
2026-05-08 09:08 52.97570 -0.87021 38103 ft 416 kts 329°
2026-05-08 09:09 53.02387 -0.91448 38094 ft 415 kts 329°
2026-05-08 09:09 53.07442 -0.96098 38100 ft 415 kts 329°
2026-05-08 09:10 53.12036 -1.00335 38103 ft 415 kts 329°
2026-05-08 09:10 53.17090 -1.05008 38097 ft 415 kts 328°
2026-05-08 09:11 53.22143 -1.09692 38096 ft 416 kts 328°
2026-05-08 09:11 53.27195 -1.14389 38091 ft 416 kts 328°
2026-05-08 09:12 53.32214 -1.19067 38096 ft 415 kts 328°
2026-05-08 09:12 53.37258 -1.23783 38092 ft 415 kts 328°
2026-05-08 09:13 53.42054 -1.27734 38102 ft 419 kts 342°
2026-05-08 09:13 53.47903 -1.28850 38104 ft 426 kts 353°
2026-05-08 09:14 53.50872 -1.29166 37499 ft 433 kts 353°
2026-05-08 09:14 53.53926 -1.29520 36125 ft 445 kts 352°
2026-05-08 09:14 53.57040 -1.29883 34939 ft 450 kts 351°
2026-05-08 09:14 53.59985 -1.31128 34500 ft 427 kts 332°
2026-05-08 09:15 53.62548 -1.33497 33880 ft 415 kts 327°
2026-05-08 09:15 53.64904 -1.35695 33393 ft 405 kts 328°
2026-05-08 09:15 53.67281 -1.38106 32885 ft 393 kts 323°
2026-05-08 09:15 53.69525 -1.40681 32346 ft 390 kts 323°
2026-05-08 09:16 53.71818 -1.43223 31840 ft 399 kts 324°
2026-05-08 09:16 53.73640 -1.45165 31413 ft 406 kts 325°
2026-05-08 09:16 53.76064 -1.47679 30886 ft 412 kts 326°
2026-05-08 09:16 53.78526 -1.50203 30336 ft 416 kts 326°
2026-05-08 09:17 53.81013 -1.52745 29748 ft 418 kts 326°
2026-05-08 09:17 53.83464 -1.55251 29223 ft 417 kts 326°
2026-05-08 09:17 53.85944 -1.57790 28674 ft 414 kts 326°
2026-05-08 09:17 53.88394 -1.60301 28124 ft 409 kts 326°
2026-05-08 09:18 53.90820 -1.62791 27586 ft 406 kts 326°
2026-05-08 09:18 53.93232 -1.65271 27052 ft 404 kts 326°
2026-05-08 09:18 53.95631 -1.67741 26517 ft 402 kts 326°
2026-05-08 09:18 53.98020 -1.70204 25986 ft 401 kts 326°
2026-05-08 09:19 54.00397 -1.72658 25437 ft 399 kts 326°
2026-05-08 09:19 54.02667 -1.75005 24766 ft 399 kts 326°
2026-05-08 09:19 54.05029 -1.77449 24292 ft 391 kts 326°
2026-05-08 09:19 54.07296 -1.79791 24954 ft 377 kts 325°
2026-05-08 09:20 54.09599 -1.82189 24353 ft 398 kts 325°
2026-05-08 09:20 54.11678 -1.84344 23397 ft 403 kts 326°
2026-05-08 09:20 54.14299 -1.86131 22157 ft 412 kts 346°
2026-05-08 09:20 54.17178 -1.86220 20955 ft 420 kts
2026-05-08 09:21 54.20044 -1.85178 19992 ft 418 kts 11°
2026-05-08 09:21 54.22835 -1.84187 19488 ft 403 kts
2026-05-08 09:22 54.38263 -1.79150 16489 ft 363 kts
2026-05-08 09:23 54.40753 -1.78361 15864 ft 365 kts
2026-05-08 09:23 54.43026 -1.77638 15277 ft 363 kts
2026-05-08 09:23 54.45505 -1.76851 14560 ft 361 kts
2026-05-08 09:23 54.47974 -1.76069 13786 ft 361 kts
2026-05-08 09:24 54.50435 -1.75287 13013 ft 358 kts
2026-05-08 09:24 54.52346 -1.74678 12462 ft 354 kts
2026-05-08 09:24 54.54738 -1.73916 11911 ft 345 kts
2026-05-08 09:24 54.57076 -1.73172 11354 ft 339 kts
2026-05-08 09:25 54.59358 -1.72440 10954 ft 329 kts
2026-05-08 09:25 54.61355 -1.71803 10585 ft 321 kts
2026-05-08 09:25 54.63526 -1.71109 10175 ft 313 kts
2026-05-08 09:25 54.65636 -1.70434 9753 ft 304 kts
2026-05-08 09:26 54.67675 -1.69780 9393 ft 294 kts
2026-05-08 09:26 54.69659 -1.69112 9098 ft 286 kts 14°
2026-05-08 09:26 54.71426 -1.67737 9110 ft 271 kts 29°
2026-05-08 09:26 54.73065 -1.66041 8560 ft 279 kts 30°
2026-05-08 09:27 54.74703 -1.64360 8406 ft 269 kts 30°
2026-05-08 09:27 54.76000 -1.63041 8253 ft 264 kts 29°
2026-05-08 09:27 54.77059 -1.61970 8130 ft 261 kts 29°
2026-05-08 09:27 54.78602 -1.60403 7874 ft 261 kts 29°
2026-05-08 09:28 54.80166 -1.58821 7668 ft 258 kts 29°
2026-05-08 09:28 54.81712 -1.57265 7489 ft 257 kts 29°
2026-05-08 09:28 54.82934 -1.56039 7325 ft 257 kts 29°
2026-05-08 09:28 54.84459 -1.54510 7175 ft 256 kts 29°
2026-05-08 09:29 54.86031 -1.52937 6968 ft 258 kts 29°
2026-05-08 09:29 54.87581 -1.51376 6772 ft 257 kts 29°
2026-05-08 09:29 54.89122 -1.49825 6581 ft 255 kts 29°
2026-05-08 09:29 54.90631 -1.48306 6410 ft 254 kts 29°
2026-05-08 09:30 54.92164 -1.46759 6169 ft 254 kts 29°
2026-05-08 09:30 54.93701 -1.45208 6030 ft 251 kts 29°
2026-05-08 09:30 54.95171 -1.43725 5840 ft 251 kts 29°
2026-05-08 09:30 54.96685 -1.42198 5637 ft 252 kts 30°
2026-05-08 09:31 54.98191 -1.40677 5459 ft 250 kts 30°
2026-05-08 09:31 54.99691 -1.39158 5305 ft 249 kts 30°
2026-05-08 09:31 55.00909 -1.37925 5078 ft 250 kts 30°
2026-05-08 09:31 55.02493 -1.36719 4742 ft 248 kts
2026-05-08 09:32 55.04137 -1.37086 4548 ft 233 kts 336°
2026-05-08 09:32 55.05537 -1.38298 4289 ft 219 kts 328°
2026-05-08 09:32 55.06586 -1.39316 4012 ft 215 kts 328°
2026-05-08 09:32 55.07900 -1.40514 3726 ft 203 kts 330°
2026-05-08 09:33 55.09095 -1.41612 3443 ft 188 kts 320°
2026-05-08 09:33 55.09763 -1.43431 3095 ft 173 kts 280°
2026-05-08 09:33 55.09794 -1.45374 2921 ft 157 kts 258°
2026-05-08 09:33 55.09449 -1.47137 2727 ft 147 kts 243°
2026-05-08 09:34 55.09022 -1.48733 2561 ft 144 kts 244°
2026-05-08 09:34 55.08621 -1.50350 2376 ft 146 kts 245°
2026-05-08 09:34 55.08237 -1.51937 2157 ft 145 kts 245°
2026-05-08 09:34 55.07841 -1.53578 1967 ft 142 kts 245°
2026-05-08 09:35 55.07461 -1.55107 1988 ft 136 kts 244°
2026-05-08 09:35 55.07072 -1.56608 1867 ft 136 kts 243°
2026-05-08 09:35 55.06805 -1.57605 1650 ft 138 kts 243°
2026-05-08 09:35 55.06285 -1.59548 1177 ft 139 kts 243°
2026-05-08 09:36 55.05878 -1.61043 908 ft 133 kts 243°
2026-05-08 09:36 55.05593 -1.62119 759 ft 129 kts 244°
2026-05-08 09:36 55.05233 -1.63529 599 ft 124 kts 244°
2026-05-08 09:36 55.04870 -1.64890 476 ft 123 kts 244°
2026-05-08 09:37 55.04516 -1.66248 364 ft 124 kts 245°
2026-05-08 09:37 55.04153 -1.67620 270 ft 124 kts 245°
2026-05-08 09:37 55.03825 -1.68859 250 ft 98 kts 245°
2026-05-08 09:37 55.03600 -1.69705 258 ft 47 kts 245°
2026-05-08 09:38 55.03588 -1.70045 261 ft 26 kts 271°
2026-05-08 09:38 55.03595 -1.70190 263 ft 14 kts 274°
2026-05-08 09:38 55.03601 -1.70353 266 ft 13 kts 275°
2026-05-08 09:38 55.03597 -1.70511 266 ft 13 kts 262°
2026-05-08 09:39 55.03593 -1.70680 266 ft 15 kts 274°
2026-05-08 09:39 55.03600 -1.70779 266 ft 6 kts 290°
2026-05-08 09:39 55.03626 -1.70784 266 ft 5 kts
2026-05-08 09:39 55.03659 -1.70780 266 ft 2 kts
2026-05-08 09:40 55.03666 -1.70779 266 ft 0 kts